Location: Bannatyne
(13.0833°N, 59.5333°W)
Time: 19:01:55
(UTC+00:00)

Explorer 7 - Pass Details

Date: 24 January 2020
Orbit: 485 x 679 km, 50.3° (Epoch: 16 February)

Event Time Altitude Azimuth Distance (km) Brightness Sun altitude
Rises 10:04:17 0° 344° (NNW) 2,688 10.0 -5.6°
Reaches altitude 10° 10:06:59 10° 3° (N) 1,835 9.3 -5.0°
Maximum altitude 10:10:00 19° 49° (NE) 1,392 9.3 -4.3°
Drops below altitude 10° 10:13:08 10° 95° (E) 1,925 11.3 -3.6°
Sets 10:16:02 0° 112° (ESE) 2,870 13.8 -2.9°
